| time (UTC) | temp F | wind direction | speed MPH | gust MPH | rain 1hr in | rain 24hr in | rain mn in | humidity % | barometer mb |
| 20260901104918 | 69 | 336 | 0.0 | 5.0 | 0.00 | 0.00 | 0.00 | 100 | 1009.4 |
| 20260901104639 | 69 | 317 | 3.0 | 5.0 | 0.00 | 0.00 | 0.00 | 100 | 1009.4 |
| 20260901103911 | 69 | 310 | 0.0 | 2.0 | 0.00 | 0.00 | 0.00 | 100 | 1009.4 |
| 20260901103356 | 68 | 310 | 0.0 | 3.0 | 0.00 | 0.00 | 0.00 | 100 | 1009.4 |
| 20260901102851 | 68 | 16 | 2.0 | 4.0 | 0.00 | 0.00 | 0.00 | 100 | 1009.4 |
| 20260901102351 | 68 | 52 | 2.0 | 5.0 | 0.00 | 0.00 | 0.00 | 100 | 1009.4 |
| 20260901101850 | 69 | 75 | 3.0 | 5.0 | 0.00 | 0.00 | 0.00 | 100 | 1009.4 |
| 20260901101349 | 71 | 53 | 4.0 | 6.0 | 0.00 | 0.00 | 0.00 | 100 | 1009.4 |
| 20260901100848 | 70 | 74 | 4.0 | 6.0 | 0.00 | 0.00 | 0.00 | 100 | 1009.4 |
| 20260901100349 | 64 | 92 | 5.0 | 6.0 | 0.00 | 0.00 | 0.00 | 100 | 1009.4 |
| 20260901095848 | 64 | 73 | 5.0 | 6.0 | 0.00 | 0.00 | 0.00 | 100 | 1009.4 |
| 20260901095617 | 62 | 75 | 5.0 | 7.0 | 0.00 | 0.00 | 0.00 | 100 | 1009.4 |
| 20260901095108 | 66 | 74 | 5.0 | 7.0 | 0.00 | 0.00 | 0.00 | 100 | 1009.4 |
| 20260901094346 | 67 | 73 | 6.0 | 7.0 | 0.00 | 0.00 | 0.00 | 100 | 1009.4 |
| 20260901093845 | 68 | 71 | 6.0 | 7.0 | 0.00 | 0.00 | 0.00 | 100 | 1009.4 |
| 20260901093612 | 69 | 67 | 6.0 | 7.0 | 0.00 | 0.00 | 0.00 | 100 | 1009.4 |
| 20260901092844 | 71 | 52 | 6.0 | 7.0 | 0.00 | 0.00 | 0.00 | 100 | 1009.4 |
| 20260901092605 | 70 | 70 | 4.0 | 7.0 | 0.00 | 0.00 | 0.00 | 100 | 1009.4 |
| 20260901091843 | 69 | 92 | 5.0 | 7.0 | 0.00 | 0.00 | 0.00 | 100 | 1009.4 |
| 20260901072712 | 72 | 95 | 4.0 | 5.0 | 0.00 | 0.00 | 0.00 | 100 | 1009.4 |
| 20260901072211 | 69 | 73 | 2.0 | 4.0 | 0.00 | 0.00 | 0.00 | 100 | 1009.4 |
| 20260901071710 | 69 | 23 | 0.0 | 2.0 | 0.00 | 0.00 | 0.00 | 100 | 1009.4 |
| 20260901071206 | 68 | 16 | 1.0 | 2.0 | 0.00 | 0.00 | 0.00 | 100 | 1009.4 |
| 20260901070705 | 69 | 305 | 0.0 | 0.0 | 0.00 | 0.00 | 0.00 | 100 | 1009.4 |
| 20260901070157 | 70 | 305 | 0.0 | 0.0 | 0.00 | 0.00 | 0.00 | 100 | 1009.4 |
| 20260901065623 | 70 | 305 | 0.0 | 0.0 | 0.00 | 0.00 | 0.00 | 100 | 1009.4 |
| 20260901065115 | 70 | 305 | 0.0 | 0.0 | 0.00 | 0.00 | 0.00 | 100 | 1009.4 |
| 20260901064612 | 70 | 305 | 0.0 | 0.0 | 0.00 | 0.00 | 0.00 | 100 | 1009.4 |
| 20260901064055 | 70 | 305 | 0.0 | 0.0 | 0.00 | 0.00 | 0.00 | 100 | 1009.4 |
| 20260901063551 | 69 | 305 | 0.0 | 2.0 | 0.00 | 0.00 | 0.00 | 100 | 1009.4 |
| 20260901063049 | 70 | 305 | 0.0 | 2.0 | 0.00 | 0.00 | 0.00 | 100 | 1009.4 |
| 20260901062530 | 71 | 351 | 0.0 | 2.0 | 0.00 | 0.00 | 0.00 | 100 | 1009.4 |
| 20260901062026 | 71 | 7 | 0.0 | 2.0 | 0.00 | 0.00 | 0.00 | 100 | 1009.4 |
| 20260901061526 | 71 | 313 | 0.0 | 1.0 | 0.00 | 0.00 | 0.00 | 100 | 1009.4 |
| 20260901061015 | 72 | 112 | 0.0 | 0.0 | 0.00 | 0.00 | 0.00 | 100 | 1009.4 |
| 20260901060507 | 72 | 112 | 0.0 | 0.0 | 0.00 | 0.00 | 0.00 | 100 | 1009.4 |
| 20260901060006 | 72 | 112 | 0.0 | 3.0 | 0.00 | 0.00 | 0.00 | 100 | 1009.4 |
| 20260901055455 | 73 | 112 | 0.0 | 4.0 | 0.00 | 0.00 | 0.00 | 100 | 1009.4 |
| 20260901054944 | 75 | 112 | 0.0 | 6.0 | 0.00 | 0.00 | 0.00 | 100 | 1009.4 |
| 20260901054707 | 73 | 125 | 3.0 | 6.0 | 0.00 | 0.00 | 0.00 | 100 | 1009.4 |
| 20260901053943 | 75 | 95 | 5.0 | 6.0 | 0.00 | 0.00 | 0.00 | 100 | 1009.4 |
| 20260901053443 | 75 | 87 | 3.0 | 5.0 | 0.00 | 0.00 | 0.00 | 100 | 1009.4 |
| 20260901052942 | 75 | 105 | 3.0 | 5.0 | 0.00 | 0.00 | 0.00 | 100 | 1009.4 |
| 20260901052441 | 74 | 111 | 3.0 | 5.0 | 0.00 | 0.00 | 0.00 | 100 | 1009.4 |
| 20260901051940 | 75 | 102 | 4.0 | 6.0 | 0.00 | 0.00 | 0.00 | 100 | 1009.4 |
| 20260901051440 | 76 | 106 | 3.0 | 6.0 | 0.00 | 0.00 | 0.00 | 100 | 1009.4 |
| 20260901051201 | 75 | 99 | 5.0 | 6.0 | 0.00 | 0.00 | 0.00 | 100 | 1009.4 |
| 20260901050438 | 75 | 66 | 5.0 | 6.0 | 0.00 | 0.00 | 0.00 | 100 | 1009.4 |
| 20260901045938 | 76 | 78 | 5.0 | 6.0 | 0.00 | 0.00 | 0.00 | 100 | 1009.4 |
| 20260901045437 | 75 | 80 | 5.0 | 6.0 | 0.00 | 0.00 | 0.00 | 100 | 1009.4 |
| 20260901044936 | 75 | 82 | 4.0 | 6.0 | 0.00 | 0.00 | 0.00 | 100 | 1009.4 |
| 20260901044437 | 76 | 92 | 4.0 | 6.0 | 0.00 | 0.00 | 0.00 | 100 | 1009.4 |
| 20260901043936 | 76 | 106 | 5.0 | 6.0 | 0.00 | 0.00 | 0.00 | 100 | 1009.4 |
| 20260901043435 | 77 | 90 | 6.0 | 6.0 | 0.00 | 0.00 | 0.00 | 100 | 1009.4 |
| 20260901042935 | 77 | 78 | 4.0 | 4.0 | 0.00 | 0.00 | 0.00 | 100 | 1009.4 |
| 20260901042434 | 76 | 130 | 0.0 | 0.0 | 0.00 | 0.00 | 0.00 | 100 | 1009.4 |
| 20260901041925 | 76 | 130 | 0.0 | 0.0 | 0.00 | 0.00 | 0.00 | 100 | 1009.4 |
| 20260901041632 | 76 | 130 | 0.0 | 0.0 | 0.00 | 0.00 | 0.00 | 100 | 1009.4 |
| 20260901040905 | 76 | 130 | 0.0 | 0.0 | 0.00 | 0.00 | 0.00 | 100 | 1009.4 |
| 20260901040559 | 76 | 130 | 0.0 | 0.0 | 0.00 | 0.00 | 0.00 | 100 | 1009.4 |
| 20260901035811 | 76 | 130 | 0.0 | 3.0 | 0.00 | 0.00 | 0.00 | 100 | 1009.4 |
| 20260901033742 | 77 | 133 | 2.0 | 4.0 | 0.00 | 0.00 | 0.00 | 100 | 1009.4 |
| 20260901033242 | 77 | 165 | 0.0 | 4.0 | 0.00 | 0.00 | 0.00 | 100 | 1009.4 |
| 20260901032737 | 78 | 161 | 3.0 | 5.0 | 0.00 | 0.00 | 0.00 | 100 | 1009.4 |
| 20260901032500 | 78 | 187 | 4.0 | 6.0 | 0.00 | 0.00 | 0.00 | 100 | 1009.4 |
| 20260901031736 | 78 | 175 | 3.0 | 6.0 | 0.00 | 0.00 | 0.00 | 100 | 1009.4 |
| 20260901031235 | 78 | 174 | 4.0 | 5.0 | 0.00 | 0.00 | 0.00 | 100 | 1009.4 |
| 20260901030735 | 77 | 163 | 0.0 | 0.0 | 0.00 | 0.00 | 0.00 | 100 | 1009.4 |
| 20260901030234 | 78 | 163 | 0.0 | 0.0 | 0.00 | 0.00 | 0.00 | 100 | 1009.4 |
| 20260901025728 | 78 | 163 | 0.0 | 0.0 | 0.00 | 0.00 | 0.00 | 100 | 1009.4 |
| 20260901025213 | 78 | 163 | 0.0 | 0.0 | 0.00 | 0.00 | 0.00 | 100 | 1009.4 |
| 20260901024704 | 79 | 163 | 0.0 | 0.0 | 0.00 | 0.00 | 0.00 | 100 | 1009.4 |
| 20260901024153 | 79 | 163 | 0.0 | 0.0 | 0.00 | 0.00 | 0.00 | 100 | 1009.4 |
| 20260901023626 | 79 | 163 | 0.0 | 0.0 | 0.00 | 0.00 | 0.00 | 100 | 1009.4 |
| 20260901023119 | 79 | 163 | 0.0 | 5.0 | 0.00 | 0.00 | 0.00 | 100 | 1009.4 |
| 20260901022619 | 79 | 163 | 0.0 | 7.0 | 0.00 | 0.00 | 0.00 | 100 | 1009.4 |
| 20260901022116 | 80 | 210 | 4.0 | 7.0 | 0.00 | 0.00 | 0.00 | 100 | 1009.4 |
| 20260901021616 | 80 | 216 | 4.0 | 6.0 | 0.00 | 0.00 | 0.00 | 100 | 1009.4 |
| 20260901021337 | 80 | 216 | 3.0 | 6.0 | 0.00 | 0.00 | 0.00 | 100 | 1009.4 |
| 20260901020614 | 80 | 202 | 3.0 | 6.0 | 0.00 | 0.00 | 0.00 | 100 | 1009.4 |
| 20260901020114 | 80 | 220 | 4.0 | 7.0 | 0.00 | 0.00 | 0.00 | 100 | 1009.4 |
| 20260901015613 | 80 | 222 | 4.0 | 7.0 | 0.00 | 0.00 | 0.00 | 100 | 1009.4 |
| 20260901015113 | 81 | 146 | 5.0 | 6.0 | 0.00 | 0.00 | 0.00 | 100 | 1009.4 |
| 20260901014611 | 80 | 171 | 0.0 | 3.0 | 0.00 | 0.00 | 0.00 | 100 | 1009.4 |
| 20260901014109 | 81 | 172 | 0.0 | 2.0 | 0.00 | 0.00 | 0.00 | 100 | 1009.4 |
| 20260901013553 | 80 | 172 | 0.0 | 4.0 | 0.00 | 0.00 | 0.00 | 100 | 1009.4 |
| 20260901013047 | 81 | 153 | 0.0 | 4.0 | 0.00 | 0.00 | 0.00 | 100 | 1009.4 |
| 20260901012533 | 81 | 174 | 0.0 | 4.0 | 0.00 | 0.00 | 0.00 | 100 | 1009.4 |
| 20260901012032 | 81 | 150 | 2.0 | 4.0 | 0.00 | 0.00 | 0.00 | 100 | 1009.4 |
| 20260901011532 | 81 | 92 | 0.0 | 7.0 | 0.00 | 0.00 | 0.00 | 100 | 1009.4 |
| 20260901011031 | 81 | 92 | 0.0 | 7.0 | 0.00 | 0.00 | 0.00 | 100 | 1009.4 |
| 20260901010020 | 81 | 101 | 4.0 | 8.0 | 0.00 | 0.00 | 0.00 | 100 | 1009.4 |
| 20260901005519 | 82 | 146 | 2.0 | 10.0 | 0.00 | 0.00 | 0.00 | 100 | 1009.4 |
| 20260901005019 | 83 | 137 | 5.0 | 10.0 | 0.00 | 0.00 | 0.00 | 100 | 1009.4 |
| 20260901004518 | 83 | 109 | 8.0 | 10.0 | 0.00 | 0.00 | 0.00 | 100 | 1009.4 |
| 20260901004017 | 82 | 140 | 5.0 | 8.0 | 0.00 | 0.00 | 0.00 | 100 | 1009.4 |
| 20260901003516 | 83 | 158 | 3.0 | 7.0 | 0.00 | 0.00 | 0.00 | 100 | 1009.4 |
| 20260901003016 | 83 | 157 | 2.0 | 7.0 | 0.00 | 0.00 | 0.00 | 100 | 1009.4 |
| 20260901002516 | 82 | 156 | 3.0 | 7.0 | 0.00 | 0.00 | 0.00 | 100 | 1009.4 |
| 20260901002015 | 83 | 161 | 2.0 | 8.0 | 0.00 | 0.00 | 0.00 | 100 | 1009.4 |
| 20260901001514 | 83 | 108 | 0.0 | 8.0 | 0.00 | 0.00 | 0.00 | 100 | 1009.4 |
| 20260901001222 | 83 | 108 | 4.0 | 8.0 | 0.00 | 0.00 | 0.00 | 100 | 1009.4 |
| 20260901000503 | 83 | 171 | 4.0 | 7.0 | 0.00 | 0.00 | 0.00 | 100 | 1009.4 |
| 20260901000003 | 83 | 95 | 2.0 | 7.0 | 0.00 | 0.00 | 0.00 | 100 | 1009.4 |
| 20260831235501 | 83 | 80 | 0.0 | 8.0 | 0.00 | 0.00 | 0.00 | 100 | 1009.4 |
| 20260831234959 | 84 | 80 | 1.0 | 8.0 | 0.00 | 0.00 | 0.00 | 100 | 1009.4 |
| 20260831234454 | 84 | 126 | 4.0 | 8.0 | 0.00 | 0.00 | 0.00 | 100 | 1009.4 |
| 20260831233953 | 83 | 184 | 0.0 | 6.0 | 0.00 | 0.00 | 0.00 | 100 | 1009.4 |
| 20260831233447 | 83 | 184 | 3.0 | 7.0 | 0.00 | 0.00 | 0.00 | 100 | 1009.4 |
| 20260831232944 | 84 | 109 | 2.0 | 7.0 | 0.00 | 0.00 | 0.00 | 100 | 1009.4 |
| 20260831232443 | 84 | 142 | 4.0 | 8.0 | 0.00 | 0.00 | 0.00 | 100 | 1009.4 |
| 20260831231943 | 85 | 118 | 3.0 | 9.0 | 0.00 | 0.00 | 0.00 | 100 | 1009.4 |
| 20260831231443 | 84 | 104 | 4.0 | 9.0 | 0.00 | 0.00 | 0.00 | 100 | 1009.4 |
| 20260831230932 | 85 | 125 | 7.0 | 9.0 | 0.00 | 0.00 | 0.00 | 100 | 1009.4 |
| 20260831230431 | 84 | 87 | 0.0 | 9.0 | 0.00 | 0.00 | 0.00 | 100 | 1009.4 |
| 20260831225918 | 83 | 130 | 4.0 | 10.0 | 0.00 | 0.00 | 0.00 | 100 | 1009.4 |
| 20260831225634 | 84 | 144 | 6.0 | 10.0 | 0.00 | 0.00 | 0.00 | 100 | 1009.4 |
| 20260831224917 | 84 | 161 | 7.0 | 10.0 | 0.00 | 0.00 | 0.00 | 100 | 1009.4 |
| 20260831224417 | 84 | 178 | 3.0 | 11.0 | 0.00 | 0.00 | 0.00 | 100 | 1009.4 |
| 20260831223916 | 83 | 142 | 6.0 | 11.0 | 0.00 | 0.00 | 0.00 | 100 | 1009.4 |
| 20260831223415 | 84 | 127 | 8.0 | 11.0 | 0.00 | 0.00 | 0.00 | 100 | 1009.4 |
| 20260831222915 | 84 | 130 | 7.0 | 13.0 | 0.00 | 0.00 | 0.00 | 100 | 1009.4 |
| 20260831222414 | 83 | 137 | 5.0 | 13.0 | 0.00 | 0.00 | 0.00 | 100 | 1009.4 |
| 20260831221913 | 83 | 232 | 6.0 | 12.0 | 0.00 | 0.00 | 0.00 | 100 | 1009.4 |
| 20260831221413 | 83 | 153 | 5.0 | 11.0 | 0.00 | 0.00 | 0.00 | 100 | 1009.4 |
| 20260831220912 | 82 | 137 | 7.0 | 11.0 | 0.00 | 0.00 | 0.00 | 100 | 1009.4 |
| 20260831220638 | 82 | 122 | 5.0 | 11.0 | 0.00 | 0.00 | 0.00 | 100 | 1009.4 |
| 20260831215911 | 81 | 160 | 4.0 | 13.0 | 0.00 | 0.00 | 0.00 | 100 | 1009.4 |
| 20260831215408 | 81 | 170 | 7.0 | 13.0 | 0.00 | 0.00 | 0.00 | 100 | 1009.4 |
| 20260831214907 | 81 | 99 | 2.0 | 11.0 | 0.00 | 0.00 | 0.00 | 100 | 1009.4 |
| 20260831214351 | 81 | 181 | 7.0 | 12.0 | 0.00 | 0.00 | 0.00 | 100 | 1009.4 |
| 20260831213850 | 81 | 104 | 7.0 | 12.0 | 0.00 | 0.00 | 0.00 | 100 | 1009.4 |
| 20260831213349 | 80 | 130 | 8.0 | 12.0 | 0.00 | 0.00 | 0.00 | 100 | 1009.4 |
| 20260831212850 | 81 | 177 | 5.0 | 13.0 | 0.00 | 0.00 | 0.00 | 100 | 1009.4 |
| 20260831212608 | 80 | 180 | 7.0 | 13.0 | 0.00 | 0.00 | 0.00 | 100 | 1009.4 |
| 20260831211848 | 81 | 185 | 11.0 | 13.0 | 0.00 | 0.00 | 0.00 | 100 | 1009.4 |
| 20260831211347 | 80 | 188 | 4.0 | 13.0 | 0.00 | 0.00 | 0.00 | 100 | 1009.4 |
| 20260831210847 | 80 | 158 | 7.0 | 13.0 | 0.00 | 0.00 | 0.00 | 100 | 1009.4 |
| 20260831210346 | 80 | 184 | 8.0 | 15.0 | 0.00 | 0.00 | 0.00 | 100 | 1009.4 |
| 20260831205845 | 80 | 201 | 11.0 | 15.0 | 0.00 | 0.00 | 0.00 | 100 | 1009.4 |
| 20260831205345 | 80 | 205 | 9.0 | 15.0 | 0.00 | 0.00 | 0.00 | 100 | 1009.4 |
| 20260831204844 | 80 | 160 | 10.0 | 15.0 | 0.00 | 0.00 | 0.00 | 100 | 1009.4 |
| 20260831204343 | 80 | 156 | 10.0 | 15.0 | 0.00 | 0.00 | 0.00 | 100 | 1009.4 |
| 20260831203842 | 79 | 133 | 10.0 | 14.0 | 0.00 | 0.00 | 0.00 | 100 | 1009.4 |
| 20260831203608 | 80 | 205 | 6.0 | 14.0 | 0.00 | 0.00 | 0.00 | 100 | 1009.4 |
| 20260831202842 | 79 | 167 | 8.0 | 16.0 | 0.00 | 0.00 | 0.00 | 100 | 1009.4 |
| 20260831202341 | 78 | 195 | 8.0 | 16.0 | 0.00 | 0.00 | 0.00 | 100 | 1009.4 |
| 20260831201841 | 78 | 163 | 8.0 | 13.0 | 0.00 | 0.00 | 0.00 | 100 | 1009.4 |
| 20260831201340 | 77 | 161 | 8.0 | 15.0 | 0.00 | 0.00 | 0.00 | 100 | 1009.4 |
| 20260831200839 | 77 | 165 | 8.0 | 15.0 | 0.00 | 0.00 | 0.00 | 100 | 1009.4 |
| 20260831195839 | 76 | 189 | 9.0 | 13.0 | 0.00 | 0.00 | 0.00 | 100 | 1009.4 |
| 20260831195337 | 76 | 167 | 9.0 | 13.0 | 0.00 | 0.00 | 0.00 | 100 | 1009.4 |
| 20260831195057 | 75 | 177 | 7.0 | 12.0 | 0.00 | 0.00 | 0.00 | 100 | 1009.4 |
| 20260831194336 | 75 | 192 | 6.0 | 12.0 | 0.00 | 0.00 | 0.00 | 100 | 1009.4 |
| 20260831193836 | 75 | 137 | 8.0 | 12.0 | 0.00 | 0.00 | 0.00 | 100 | 1009.4 |
| 20260831193601 | 74 | 157 | 6.0 | 11.0 | 0.00 | 0.00 | 0.00 | 100 | 1009.4 |
| 20260831192835 | 75 | 181 | 5.0 | 10.0 | 0.00 | 0.00 | 0.00 | 100 | 1009.4 |
| 20260831192334 | 75 | 136 | 9.0 | 10.0 | 0.00 | 0.00 | 0.00 | 100 | 1009.4 |
| 20260831191833 | 75 | 157 | 3.0 | 6.0 | 0.00 | 0.00 | 0.00 | 100 | 1009.4 |
| 20260831191333 | 76 | 120 | 3.0 | 6.0 | 0.00 | 0.00 | 0.00 | 100 | 1009.4 |
| 20260831190832 | 76 | 113 | 2.0 | 6.0 | 0.00 | 0.00 | 0.00 | 100 | 1009.4 |
| 20260831190321 | 76 | 217 | 0.0 | 6.0 | 0.00 | 0.00 | 0.00 | 100 | 1009.4 |
| 20260831185821 | 77 | 217 | 0.0 | 6.0 | 0.00 | 0.00 | 0.00 | 100 | 1009.4 |
| 20260831185320 | 77 | 205 | 3.0 | 7.0 | 0.00 | 0.00 | 0.00 | 100 | 1009.4 |
| 20260831184819 | 78 | 226 | 2.0 | 8.0 | 0.00 | 0.00 | 0.00 | 100 | 1009.4 |
| 20260831184318 | 77 | 213 | 4.0 | 9.0 | 0.00 | 0.00 | 0.00 | 100 | 1009.4 |
| 20260831183818 | 77 | 202 | 5.0 | 9.0 | 0.00 | 0.00 | 0.00 | 100 | 1009.4 |
| 20260831183318 | 77 | 127 | 7.0 | 9.0 | 0.00 | 0.00 | 0.00 | 100 | 1009.4 |
| 20260831182817 | 77 | 123 | 4.0 | 9.0 | 0.00 | 0.00 | 0.00 | 100 | 1009.4 |
| 20260831182316 | 77 | 149 | 4.0 | 10.0 | 0.00 | 0.00 | 0.00 | 100 | 1009.4 |
| 20260831182037 | 77 | 81 | 6.0 | 11.0 | 0.00 | 0.00 | 0.00 | 100 | 1009.4 |
| 20260831181315 | 77 | 115 | 7.0 | 11.0 | 0.00 | 0.00 | 0.00 | 100 | 1009.4 |
| 20260831180814 | 77 | 130 | 6.0 | 14.0 | 0.00 | 0.00 | 0.00 | 100 | 1009.4 |
| 20260831180314 | 76 | 102 | 6.0 | 14.0 | 0.00 | 0.00 | 0.00 | 100 | 1009.4 |
| 20260831175813 | 77 | 122 | 10.0 | 13.0 | 0.00 | 0.00 | 0.00 | 100 | 1009.4 |
| 20260831175313 | 76 | 66 | 11.0 | 12.0 | 0.00 | 0.00 | 0.00 | 100 | 1009.4 |
| 20260831174812 | 76 | 87 | 8.0 | 12.0 | 0.00 | 0.00 | 0.00 | 100 | 1009.4 |
| 20260831174312 | 76 | 108 | 7.0 | 15.0 | 0.00 | 0.00 | 0.00 | 100 | 1009.4 |
| 20260831173812 | 74 | 73 | 11.0 | 15.0 | 0.00 | 0.00 | 0.00 | 100 | 1009.4 |
| 20260831173311 | 74 | 81 | 8.0 | 15.0 | 0.00 | 0.00 | 0.00 | 100 | 1009.4 |
| 20260831172536 | 69 | 119 | 13.0 | 16.0 | 0.00 | 0.00 | 0.00 | 100 | 1009.4 |
| 20260831171809 | 68 | 97 | 11.0 | 15.0 | 0.00 | 0.00 | 0.00 | 100 | 1009.4 |
| 20260831170808 | 67 | 92 | 10.0 | 14.0 | 0.00 | 0.00 | 0.00 | 100 | 1009.4 |
| 20260831170307 | 67 | 92 | 11.0 | 15.0 | 0.00 | 0.00 | 0.00 | 100 | 1009.4 |
| 20260831165806 | 69 | 106 | 9.0 | 16.0 | 0.00 | 0.00 | 0.00 | 100 | 1009.4 |
| 20260831165306 | 68 | 99 | 11.0 | 17.0 | 0.00 | 0.00 | 0.00 | 100 | 1009.4 |
| 20260831164805 | 68 | 113 | 12.0 | 17.0 | 0.00 | 0.00 | 0.00 | 100 | 1009.4 |
| 20260831164304 | 69 | 104 | 11.0 | 17.0 | 0.00 | 0.00 | 0.00 | 100 | 1009.4 |
| 20260831163804 | 71 | 101 | 12.0 | 17.0 | 0.00 | 0.00 | 0.00 | 100 | 1009.4 |
| 20260831163303 | 72 | 80 | 12.0 | 17.0 | 0.00 | 0.00 | 0.00 | 100 | 1009.4 |
| 20260831162802 | 72 | 66 | 12.0 | 17.0 | 0.00 | 0.00 | 0.00 | 100 | 1009.4 |
| 20260831162305 | 72 | 91 | 11.0 | 15.0 | 0.00 | 0.00 | 0.00 | 100 | 1009.4 |
| 20260831161801 | 72 | 70 | 11.0 | 15.0 | 0.00 | 0.00 | 0.00 | 100 | 1009.4 |
| 20260831161301 | 72 | 64 | 9.0 | 12.0 | 0.00 | 0.00 | 0.00 | 100 | 1009.4 |
| 20260831160800 | 72 | 102 | 9.0 | 11.0 | 0.00 | 0.00 | 0.00 | 100 | 1009.4 |
| 20260831160259 | 72 | 115 | 9.0 | 11.0 | 0.00 | 0.00 | 0.00 | 100 | 1009.4 |
| 20260831160023 | 72 | 97 | 8.0 | 10.0 | 0.00 | 0.00 | 0.00 | 100 | 1009.4 |
| 20260831155258 | 73 | 119 | 8.0 | 10.0 | 0.00 | 0.00 | 0.00 | 100 | 1009.4 |
| 20260831154758 | 72 | 123 | 6.0 | 12.0 | 0.00 | 0.00 | 0.00 | 100 | 1009.4 |
| 20260831154257 | 72 | 119 | 7.0 | 12.0 | 0.00 | 0.00 | 0.00 | 100 | 1009.4 |
| 20260831154023 | 72 | 102 | 9.0 | 12.0 | 0.00 | 0.00 | 0.00 | 100 | 1009.4 |
| 20260831153256 | 73 | 129 | 8.0 | 11.0 | 0.00 | 0.00 | 0.00 | 100 | 1009.4 |
| 20260831152255 | 72 | 157 | 8.0 | 17.0 | 0.00 | 0.00 | 0.00 | 100 | 1009.4 |
| 20260831151755 | 72 | 142 | 8.0 | 17.0 | 0.00 | 0.00 | 0.00 | 100 | 1009.4 |
| 20260831151254 | 73 | 164 | 9.0 | 15.0 | 0.00 | 0.00 | 0.00 | 100 | 1009.4 |
| 20260831150753 | 72 | 174 | 11.0 | 15.0 | 0.00 | 0.00 | 0.00 | 100 | 1009.4 |
| 20260831150253 | 72 | 126 | 12.0 | 15.0 | 0.00 | 0.00 | 0.00 | 100 | 1009.4 |
| 20260831145752 | 72 | 147 | 9.0 | 15.0 | 0.00 | 0.00 | 0.00 | 100 | 1009.4 |
| 20260831145251 | 72 | 165 | 10.0 | 15.0 | 0.00 | 0.00 | 0.00 | 100 | 1009.4 |
| 20260831144750 | 73 | 153 | 10.0 | 19.0 | 0.00 | 0.00 | 0.00 | 100 | 1009.4 |
| 20260831144249 | 74 | 154 | 10.0 | 19.0 | 0.00 | 0.00 | 0.00 | 100 | 1009.4 |
| 20260831143750 | 75 | 156 | 12.0 | 17.0 | 0.00 | 0.00 | 0.00 | 100 | 1009.4 |
| 20260831143249 | 76 | 168 | 11.0 | 19.0 | 0.00 | 0.00 | 0.00 | 100 | 1009.4 |
| 20260831142748 | 77 | 157 | 12.0 | 19.0 | 0.00 | 0.00 | 0.00 | 100 | 1009.4 |
| 20260831142510 | 78 | 147 | 9.0 | 18.0 | 0.00 | 0.00 | 0.00 | 100 | 1009.4 |
| 20260831142011 | 73 | 146 | 6.0 | 16.0 | 0.00 | 0.00 | 0.00 | 100 | 1009.4 |
| 20260831141246 | 74 | 142 | 10.0 | 16.0 | 0.00 | 0.00 | 0.00 | 100 | 1009.4 |
| 20260831141006 | 75 | 143 | 7.0 | 15.0 | 0.00 | 0.00 | 0.00 | 100 | 1009.4 |
| 20260831140246 | 75 | 163 | 8.0 | 15.0 | 0.00 | 0.00 | 0.00 | 100 | 1009.4 |
| 20260831140002 | 75 | 136 | 8.0 | 17.0 | 0.00 | 0.00 | 0.00 | 100 | 1009.4 |
| 20260831135243 | 74 | 177 | 11.0 | 17.0 | 0.00 | 0.00 | 0.00 | 100 | 1009.4 |
| 20260831134744 | 75 | 129 | 9.0 | 14.0 | 0.00 | 0.00 | 0.00 | 100 | 1009.4 |
| 20260831134243 | 74 | 163 | 9.0 | 15.0 | 0.00 | 0.00 | 0.00 | 100 | 1009.4 |
| 20260831133742 | 75 | 187 | 11.0 | 15.0 | 0.00 | 0.00 | 0.00 | 100 | 1009.4 |
| 20260831133242 | 76 | 125 | 8.0 | 10.0 | 0.00 | 0.00 | 0.00 | 100 | 1009.4 |
| 20260831132741 | 75 | 163 | 4.0 | 7.0 | 0.00 | 0.00 | 0.00 | 100 | 1009.4 |
| 20260831132240 | 74 | 122 | 4.0 | 6.0 | 0.00 | 0.00 | 0.00 | 100 | 1009.4 |
| 20260831131740 | 74 | 115 | 4.0 | 6.0 | 0.00 | 0.00 | 0.00 | 100 | 1009.4 |
| 20260831131239 | 74 | 99 | 0.0 | 4.0 | 0.00 | 0.00 | 0.00 | 100 | 1009.4 |
| 20260831130734 | 74 | 115 | 2.0 | 3.0 | 0.00 | 0.00 | 0.00 | 100 | 1009.4 |
| 20260831130234 | 74 | 99 | 2.0 | 3.0 | 0.00 | 0.00 | 0.00 | 100 | 1009.4 |
| 20260831125733 | 74 | 149 | 1.0 | 3.0 | 0.00 | 0.00 | 0.00 | 100 | 1009.4 |
| 20260831125230 | 74 | 172 | 0.0 | 5.0 | 0.00 | 0.00 | 0.00 | 100 | 1009.4 |
| 20260831124726 | 73 | 172 | 0.0 | 5.0 | 0.00 | 0.00 | 0.00 | 100 | 1009.4 |
| 20260831124225 | 75 | 153 | 2.0 | 9.0 | 0.00 | 0.00 | 0.00 | 100 | 1009.4 |
| 20260831123935 | 75 | 167 | 4.0 | 9.0 | 0.00 | 0.00 | 0.00 | 100 | 1009.4 |
| 20260831123435 | 73 | 167 | 4.0 | 8.0 | 0.00 | 0.00 | 0.00 | 100 | 1009.4 |
| 20260831122713 | 73 | 177 | 3.0 | 5.0 | 0.00 | 0.00 | 0.00 | 100 | 1009.4 |
| 20260831122212 | 74 | 115 | 3.0 | 5.0 | 0.00 | 0.00 | 0.00 | 100 | 1009.4 |
| 20260831121713 | 75 | 140 | 3.0 | 5.0 | 0.00 | 0.00 | 0.00 | 100 | 1009.4 |
| 20260831121211 | 73 | 160 | 2.0 | 6.0 | 0.00 | 0.00 | 0.00 | 100 | 1009.4 |
| 20260831120711 | 74 | 144 | 4.0 | 6.0 | 0.00 | 0.00 | 0.00 | 100 | 1009.4 |
| 20260831120427 | 73 | 126 | 0.0 | 0.0 | 0.00 | 0.00 | 0.00 | 100 | 1009.4 |
| 20260831115637 | 73 | 126 | 0.0 | 2.0 | 0.00 | 0.00 | 0.00 | 100 | 1009.4 |
| 20260831115110 | 74 | 126 | 0.0 | 6.0 | 0.00 | 0.00 | 0.00 | 100 | 1009.4 |
| 20260831114604 | 73 | 171 | 4.0 | 6.0 | 0.00 | 0.00 | 0.00 | 100 | 1009.4 |
| 20260831114102 | 73 | 175 | 4.0 | 6.0 | 0.00 | 0.00 | 0.00 | 100 | 1009.4 |
| 20260831113603 | 73 | 168 | 4.0 | 5.0 | 0.00 | 0.00 | 0.00 | 100 | 1009.4 |
| 20260831113102 | 74 | 156 | 4.0 | 5.0 | 0.00 | 0.00 | 0.00 | 100 | 1009.4 |
| 20260831112601 | 73 | 127 | 0.0 | 4.0 | 0.00 | 0.00 | 0.00 | 100 | 1009.4 |
| 20260831111556 | 74 | 279 | 0.0 | 0.0 | 0.00 | 0.00 | 0.00 | 100 | 1009.4 |
| 20260831111053 | 74 | 279 | 0.0 | 4.0 | 0.00 | 0.00 | 0.00 | 100 | 1009.4 |
| 20260831110550 | 75 | 279 | 0.0 | 5.0 | 0.00 | 0.00 | 0.00 | 100 | 1009.4 |
| 20260831105541 | 74 | 336 | 3.0 | 5.0 | 0.00 | 0.00 | 0.00 | 100 | 1009.4 |